box saran
Judi Online Terpercaya

Jackpot

Texas Poker Multi Jackpot System

Kini Telah hadir Jackpot SUPER ROYAL FLUSH

Kini Telah hadir Jackpot 2000 (khusus table VIP keatas).

Ikutilah global jackpot yang tersedia di system kami, dengan system jackpot terbaru dan pertama di indonesia, anda dapat membeli jackpot dengan harga 100 rupiah saja dan menangkan hadiahnya hingga puluhan juta rupiah.

Jackpot bukanlah suatu keharusan untuk dibeli, namun kami memberikan suatu fitur tambahan untuk member tercinta dari www.hatipoker.net.

Terdapat tiga pilihan harga jackpot yang bisa anda beli yaitu :100,500,1000 dan 2000(khusus table VIP Keatas) rupiah.

Hadiah dari Multi jackpot system www.hatipoker.net

  1. full house x 10 harga jackpot yang anda beli.
      (contoh:anda membeli 1000 maka:1000 X10 = 10.000)
  2. four of kind x 250 harga jackpot yang anda beli
      (contoh:anda membeli 1000 maka:1000 X250 = 250.000)
  3. Straight flush x 1200
      (contoh:anda membeli 1000 maka:1000 X1200 = 1.200.000)
  4. Royal flush x 10000 harga jackpot yang anda beli
      (contoh:anda membeli 1000 maka:1000 X10000 = 10.000.000)
  5. SUPER ROYAL FLUSH x 30000 harga jackpot yang anda beli
      (contoh:anda membeli 1000 maka:1000 X30000 = 30.000.000)

Kondisi kartu

  1. full house adalah kondisi kartu dimana kartu anda dan kartu tengah dengan total 7 kartu bisa mendapatkan nilai 5 kartu dengan kombinasi 1 tris(three of kind) dan 1 pair, contoh 3 kartu 10 dan 2 kartu 5
  2. Four of kind adalah kondisi kartu dimana kartu anda dan kartu tengah dengan total 7 kartu bisa mendapatkan nilai 5 kartu dengan kombinasi 4 kartu yang sama jumlah dan 1 kartu apapun juga contoh anda mendapatkan 4 buah kartu angka 3 dan 1 kartu apapun.
  3. Staright flush adalah kondisi kartu dimana kartu anda dan kartu tengah dengan total 7 kartu bisa mendapatkan nilai 5 kartu dengan kombinasi seri / staright dengan kembang yang sama contoh : urutan kartu dari angka 5, 6, 7, 8 , 9 10 dengan kembang yg sama misalnya as hati
  4. Royal flush adalah kondisi kartu dimana kartu anda dan kartu tengah dengan total 7 kartu bisa mendapatkan nilai 5 kartu dengan kombinasi seri / staright dengan kembang yang sama tetapi kartu tersebut haruslah dimulai dari 10. contoh 10, Queen, Jack, King dan aces dengan kembang yang sama
  5. Super Royal flush adalah kondisi kartu dimana Kedua kartu anda digabung dengan 3 kartu pertama meja haruslah royal flush. contoh kartu anda 10,Queen kembang sama dan 3 kartu pertama meja adalah Jack, King dan aces dengan kembang yang sama

Demikian adalah penjelasan dari Multi Jackpot www.hatipoker.net terima kasih dan selamat bermain salam hoki dari kami

Texas Poker Jackpot Winner

TOP SUPER ROYAL FLUSH
No.TanggalNamaPriceWin
125/09 21:59WITHRAW99Super Royal flush30,000,000
225/09 21:32GOGO1204Super Royal flush30,000,000
325/09 20:13MOWHAK99Super Royal flush6,000,000
425/09 18:07RAY_VENKSuper Royal flush30,000,000
525/09 16:31K_1_NOISuper Royal flush30,000,000
TOP ROYAL FLUSH
No.TanggalNamaPriceWin
126/09 08:08BUNTUNGRoyal flush10,000,000
226/09 07:49CXHTX8KVXURoyal flush5,000,000
326/09 07:38WANZ0000Royal flush10,000,000
426/09 07:13AMENNNNNRoyal flush1,000,000
526/09 06:53MASALAHLOHRoyal flush10,000,000
TOP STRAIGHT FLUSH
No.TanggalNamaPriceWin
126/09 08:11MIYUStraight Flush120,000
226/09 08:09IMARI88Straight Flush1,200,000
326/09 08:08LEMVAPStraight Flush120,000
426/09 08:06P0H0DUITStraight Flush1,200,000
526/09 08:06UCING10Straight Flush600,000
LATEST JACKPOT
No.TanggalNamaPriceWin
126/09 08:13PHEFull House20,000
226/09 08:13R4GUMUNDURFull House2,000
326/09 08:13TADUNG69Full House5,000
426/09 08:13NOBITA45Four Of A Kind25,000
526/09 08:13IKNAL09Full House20,000
626/09 08:13MUHHFull House5,000
726/09 08:13BABY41Full House1,000
826/09 08:13D47SIKY0MYFull House5,000
926/09 08:13WYBFISOOFull House5,000
1026/09 08:13ALANTOPANIFull House5,000
1126/09 08:13LAPES88Full House5,000
1226/09 08:13MHOMHOOFull House10,000
1326/09 08:13RAVIKA08Full House10,000
1426/09 08:13MANANK88Full House5,000
1526/09 08:13JAMAL86Full House10,000
1626/09 08:13S3P4R05474Full House2,000
1726/09 08:13STV23Full House10,000
1826/09 08:13BEKEK789Full House5,000
1926/09 08:13ROYAL86_Full House2,000
2026/09 08:13ALDAVINFull House10,000
2126/09 08:13RYANCHARRFull House2,000
2226/09 08:13A4F59902Full House10,000
2326/09 08:13MOGA4ASFull House2,000
2426/09 08:13BHBFull House1,000
2526/09 08:13NSHASDFull House20,000
2626/09 08:13F0LDFull House2,000
2726/09 08:13F950A5FEFull House2,000
2826/09 08:13BUNGKUS_45Full House500
2926/09 08:12FCC70C1DFull House2,000
3026/09 08:12ZEBEFOTYUJFull House20,000
3126/09 08:12HUNGALFull House5,000
3226/09 08:12VANKODFull House5,000
3326/09 08:12DA29C340Full House5,000
3426/09 08:12MAUPA13Full House20,000
3526/09 08:12BROKE222Full House5,000
3626/09 08:12FE3A6BE3Full House5,000
3726/09 08:12B830F229Full House5,000
3826/09 08:12NAYARA29Full House2,000
3926/09 08:12IPITYANI88Full House5,000
4026/09 08:12HZ1UHROM6WFull House1,000
4126/09 08:12B37ENDI888763Full House1,000
4226/09 08:12MOTORGSXFull House20,000
4326/09 08:12A13XBEFull House5,000
4426/09 08:12TAPAY77Full House1,000
4526/09 08:12MM55Full House2,000
4626/09 08:12TURBOYFull House10,000
4726/09 08:12SHARK529Full House10,000
4826/09 08:12FR_7465Full House10,000
4926/09 08:12JOKOKU11Full House10,000
5026/09 08:12PELO405Full House2,000

Domino Multi Jackpot System

Ikutilah global jackpot yang tersedia di system kami, dengan system jackpot terbaru dan pertama di indonesia, anda dapat membeli jackpot dengan harga 100 rupiah saja dan menangkan hadiahnya hingga puluhan juta rupiah.

Jackpot bukanlah suatu keharusan untuk dibeli, namun kami memberikan suatu fitur tambahan untuk member tercinta dari www.hatipoker.net.

Terdapat tiga pilihan harga jackpot yang bisa anda beli yaitu :100,500 dan 1000 rupiah.

Hadiah dari Multi jackpot system www.hatipoker.net

  1. Murni Kecil x 50 harga jackpot yang anda beli.
      (contoh:anda membeli 1000 maka:1000 X 50 = 50.000)
  2. Murni Besar x 50 harga jackpot yang anda beli
      (contoh:anda membeli 1000 maka:1000 X 50 = 50.000)
  3. BALAK x 100 harga jackpot yang anda beli
      (contoh:anda membeli 1000 maka:1000 X 100 = 100.000)
  4. ENAM DEWA x 6666 harga jackpot yang anda beli
      (contoh:anda membeli 1000 maka:1000 X 6666 = 6.666.000)

Demikian adalah penjelasan dari Multi Jackpot www.hatipoker.net terima kasih dan selamat bermain salam hoki dari kami

Domino Jackpot Winner

TOP ENAM DEWA
No.TanggalNamaPriceWin
126/09 07:52SEMOK_MOmurni enam666,600
226/09 07:46SLV89murni enam6,666,000
326/09 06:23MAC4NNmurni enam666,600
426/09 04:49VERA_NITAmurni enam6,666,000
526/09 04:18P43K2murni enam666,600
TOP BALAK
No.TanggalNamaPriceWin
126/09 08:11BOEDHY10balak100,000
226/09 08:10ASPLAPSDLPbalak10,000
326/09 08:08ROG4S88balak100,000
426/09 08:03MATII04balak100,000
526/09 07:56PEYANG18balak100,000
LATEST JACKPOT
No.TanggalNamaPriceWin
126/09 08:11ROBERTA79murni besar50,000
226/09 08:11ULUNG873murni kecil5,000
326/09 08:11BOEDHY10balak100,000
426/09 08:10PENDI246murni besar50,000
526/09 08:10ASPLAPSDLPbalak10,000
626/09 08:10ZORRO63murni besar50,000
726/09 08:09ROG4S88murni besar50,000
826/09 08:09DESTRO999murni besar5,000
926/09 08:08BUSTON99murni kecil25,000
1026/09 08:08ROG4S88balak100,000
1126/09 08:07MRJAMBRA9lucky99350,000
1226/09 08:05BAKWAN_757murni besar25,000
1326/09 08:05IDNGKI974lucky9910,000
1426/09 08:04BOSS_BOCAHmurni kecil50,000
1526/09 08:03MATII04balak100,000
1626/09 08:03B24ABDULAH6702murni kecil5,000
1726/09 08:03RTPATOKmurni besar50,000
1826/09 08:01IDNGKI974murni besar25,000
1926/09 08:01B24ABDULAH6702murni besar5,000
2026/09 08:01MAQLOASUUUmurni kecil50,000
2126/09 08:00DENDI909murni kecil5,000
2226/09 08:00IA5M6GAXXImurni kecil50,000
2326/09 08:00POTENG78murni kecil50,000
2426/09 07:59DM136343murni kecil50,000
2526/09 07:58SEMOK_MOlucky9910,000
2626/09 07:58B40DIN531murni besar50,000
2726/09 07:57PASAR_100murni kecil50,000
2826/09 07:56PEYANG18balak100,000
2926/09 07:56SEAN37lucky9910,000
3026/09 07:56ZERGSmurni kecil50,000
3126/09 07:56SUGEH880murni besar50,000
3226/09 07:56VIKING11murni besar25,000
3326/09 07:53ROYENDRAAAmurni besar50,000
3426/09 07:53BAMS1988murni besar50,000
3526/09 07:52SEMOK_MOmurni enam666,600
3626/09 07:52BRINGAS1murni kecil25,000
3726/09 07:51IREY01murni besar25,000
3826/09 07:50ROYENDRAAAbalak100,000
3926/09 07:49NDASE5678murni besar5,000
4026/09 07:48XXXZZZmurni besar50,000
4126/09 07:47ANANINU_55murni besar25,000
4226/09 07:47KENKEN89murni besar50,000
4326/09 07:47CENGOS2626balak50,000
4426/09 07:47ADI8900balak10,000
4526/09 07:46PUBLASHlucky9925,000
4626/09 07:46SLV89murni enam6,666,000
4726/09 07:46ALS207murni besar50,000
4826/09 07:45JHONONAR33murni kecil50,000
4926/09 07:45JOKOSU21murni besar50,000
5026/09 07:43ADI8900murni besar5,000

Ceme Multi Jackpot System

Jackpot dilihat dari gabungan kartu pemain dengan kartu bandar. Bandar harus membeli jackpot sebanyak jumlah player yang sedang duduk. Sebagai contoh bila terdapat 3 pemain duduk bermain, dan bandar memutuskan untuk membeli jackpot Rp 1.000, maka pada periode tersebut bandar akan membeli jackpot sebanyak 3xRp1.000 = Rp3.000.

Jackpot bukanlah suatu keharusan untuk dibeli, namun kami memberikan suatu fitur tambahan untuk member tercinta dari www.hatipoker.net.

Terdapat tiga pilihan harga jackpot yang bisa anda beli yaitu :100,500 dan 1000 rupiah.

Hadiah dari Multi jackpot system www.hatipoker.net

  1. Murni Kecil x 50 harga jackpot yang anda beli.
      (contoh:anda membeli 1000 maka:1000 X 50 = 50.000)
  2. Murni Besar x 50 harga jackpot yang anda beli
      (contoh:anda membeli 1000 maka:1000 X 50 = 50.000)
  3. BALAK x 200 harga jackpot yang anda beli
      (contoh:anda membeli 1000 maka:1000 X 200 = 200.000)
  4. ENAM DEWA x 6666 harga jackpot yang anda beli
      (contoh:anda membeli 1000 maka:1000 X 6666 = 6.666.000)

Demikian adalah penjelasan dari Multi Jackpot www.hatipoker.net terima kasih dan selamat bermain salam hoki dari kami

Ceme Jackpot Winner

TOP ENAM DEWA
No.TanggalNamaPriceWin
126/09 08:10AGOESS179murni enam6,666,000
226/09 08:10MARKUSZmurni enam3,333,000
326/09 08:07DITO333murni enam6,666,000
426/09 08:02TUYULGAULmurni enam3,333,000
526/09 07:57SUNARYO16murni enam6,666,000
TOP BALAK
No.TanggalNamaPriceWin
126/09 08:13AAHOKY01balak200,000
226/09 08:13IDUTEAbalak200,000
326/09 08:13FATONI_199balak200,000
426/09 08:13WDY99balak200,000
526/09 08:13FENDY08balak200,000
LATEST JACKPOT
No.TanggalNamaPriceWin
126/09 08:13AAHOKY01balak200,000
226/09 08:13WANREMImurni besar50,000
326/09 08:13UUUUU88murni besar5,000
426/09 08:13IDUTEAbalak200,000
526/09 08:13FATONI_199balak200,000
626/09 08:13KUSKUS45murni kecil50,000
726/09 08:13WDY99balak200,000
826/09 08:13FENDY08balak200,000
926/09 08:13PASAR_100murni kecil50,000
1026/09 08:13DEDEAWAN01murni kecil50,000
1126/09 08:13ATNK214murni kecil25,000
1226/09 08:12GALUH168murni besar50,000
1326/09 08:12NOV1992murni besar50,000
1426/09 08:12HOME88002murni besar50,000
1526/09 08:12DOELZ46murni kecil50,000
1626/09 08:12BASWAN88murni kecil50,000
1726/09 08:12QLEDTVmurni kecil5,000
1826/09 08:12C53IH377murni besar50,000
1926/09 08:12ROMLAH456murni kecil50,000
2026/09 08:12RIANDI77murni kecil50,000
2126/09 08:12RYANUNI19murni kecil5,000
2226/09 08:12M420Mmurni kecil50,000
2326/09 08:12LOBALOBA12murni besar25,000
2426/09 08:11HOKIKU13murni kecil50,000
2526/09 08:11BABI_999murni kecil5,000
2626/09 08:11KINGJAJILmurni besar50,000
2726/09 08:11C53IH377murni besar50,000
2826/09 08:11AMBOJQKAbalak100,000
2926/09 08:10AHOK9999murni kecil50,000
3026/09 08:10AGOESS179murni enam6,666,000
3126/09 08:10MARKUSZmurni enam3,333,000
3226/09 08:10PCCSEB3H4Lmurni kecil50,000
3326/09 08:10CHEPER06murni kecil50,000
3426/09 08:10ESTES77murni besar50,000
3526/09 08:10JMBLONG79murni kecil50,000
3626/09 08:10ATEK12murni kecil50,000
3726/09 08:10BINTANG7murni kecil25,000
3826/09 08:09RIAN027murni kecil5,000
3926/09 08:09M4ESTROmurni kecil25,000
4026/09 08:09IDUTEAmurni kecil50,000
4126/09 08:09ROSSA12murni kecil50,000
4226/09 08:09ALX19murni kecil50,000
4326/09 08:09NDOLOmurni besar25,000
4426/09 08:09LAMBER400murni besar5,000
4526/09 08:09BIIEALWAYSmurni kecil25,000
4626/09 08:09MADU_02murni besar25,000
4726/09 08:09NINE8899balak200,000
4826/09 08:09RICHISbalak200,000
4926/09 08:09BANGRAHMADbalak200,000
5026/09 08:09ATITYAAYAHbalak20,000